Regional Weather Roundup
Issued by NWS Sterling, VA

Home | Current Version | Previous Version | Text Only | Print | Product List | Glossary Off
Versions: 1 2 3 4 5 6 7 8 9 10 11 12 13 14 15 16 17 18 19 20 21 22 23 24 25 26 27

000
ASUS41 KLWX 240011
RWRLWX

REGIONAL WEATHER ROUNDUP
NATIONAL WEATHER SERVICE BALTIMORE MD/WASHINGTON DC
800 PM EDT FRI JUN 23 2017

Note: "FAIR" indicates few or no clouds below 12,000 feet
with no significant weather and/or obstructions to visibility.
 TC=TEMPERATURE CELSIUS

 * =Non NWS site. Station does not report precipitation (e.g. rain,
    snow, etc.), thunder, or fog.

DCZ001-MDZ009-015-VAZ040>042-051-053>054-240100-
WASHINGTON METRO

CITY           SKY/WX    TMP DP  RH WIND       PRES   REMARKS
WASHINGTON NAT MOCLDY    86  74  67 SW15      29.70S HX  94
DULLES         MOCLDY    84  72  67 S13       29.70R
ANDREWS AFB    CLEAR     84  72  67 S17       29.71R
FT BELVOIR     CLEAR     85  72  64 S9        29.70R HX  91
QUANTICO       LGT RAIN  86  74  67 SW10      29.72R HX  94
COLLEGE PARK*  MOCLDY    85  73  66 S6        29.69S HX  92
LEESBURG*      PTCLDY   N/A N/A N/A S10       29.71R
MANASSAS*      CLOUDY    84  73  69 S12       29.71R HX  90
GAITHERSBURG*  CLEAR     83  73  72 S8        29.72S

$$

MDZ006>007-011-014-240100-
BALTIMORE METRO

CITY           SKY/WX    TMP DP  RH WIND       PRES   REMARKS
BWI AIRPORT    PTCLDY    84  75  74 SW10G17   29.68S HX  92
MD SCIENCE CTR   N/A     87  74  64 MISG      29.68S HX  95
MARTIN STATE   PTCLDY    86  77  74 S12G23    29.68F HX  97
ANNAPOLIS      CLEAR     85  76  74 SW9       29.69S HX  94
FORT MEADE*    CLEAR     81  72  74 SW13G18   29.71S

$$

MDZ012-015-019>023-240100-
MARYLAND EASTERN SHORE

CITY           SKY/WX    TMP DP  RH WIND       PRES   REMARKS
OCEAN CITY     PTCLDY    79  74  84 SW9       29.76S
SALISBURY      CLEAR     84  74  71 S10       29.74S HX  91
BAY BRIDGE AP* CLEAR     84  73  70 S8        29.70S HX  91
CAMBRIDGE*     CLEAR     84  73  70 S7G14     29.72S HX  91
EASTON*        MOCLDY    86  73  66 SW12      29.74F HX  93

$$

MDZ017>025-240100-
SOUTHERN MARYLAND

CITY           SKY/WX    TMP DP  RH WIND       PRES   REMARKS
PATUXENT RIVER MOCLDY    85  73  67 SW9       29.72F HX  91
ST INIGOES     CLEAR     86  75  69 S13       29.72F HX  95
LEONARDTOWN*   PTCLDY    84  72  65 SW9       29.74S

$$

MDZ003>005-240100-
NORTH CENTRAL MARYLAND

CITY           SKY/WX    TMP DP  RH WIND       PRES   REMARKS
FREDERICK*     CLEAR     84  66  54 SW8G16    29.71R
HAGERSTOWN APT PTCLDY    81  71  71 NW5       29.69R
WESTMINSTER*   CLEAR     84  70  61 SW20      29.69S

$$

MDZ501>502-240100-
WESTERN MARYLAND

CITY           SKY/WX    TMP DP  RH WIND       PRES   REMARKS
OAKLAND*       NOT AVBL
CUMBERLAND*    CLOUDY    73  70  88 NE5       29.75R

$$

VAZ025>031-240100-
SHENANDOAH VALLEY

CITY           SKY/WX    TMP DP  RH WIND       PRES   REMARKS
WINCHESTER*    PTCLDY    82  66  57 SW10      29.70R
FRONT ROYAL*   PTCLDY    82  70  65 SW5       29.70R
LURAY*         MOCLDY    82  70  65 S7        29.74R
NEW MARKET*    CLOUDY    83  67  59 SW3       29.72F
STAUNTON*      CLOUDY    81  69  66 SW9       29.79S
WAYNESBORO*    CLOUDY    80  72  76 S6        29.79S

$$

WVZ021-048>050-054>055-240100-
EASTERN WEST VIRGINIA PANHANDLE

CITY           SKY/WX    TMP DP  RH WIND       PRES   REMARKS
MARTINSBURG    MOCLDY    84  67  56 SW8       29.67S
PETERSBURG*    MOCLDY    84  68  58 S7        29.71S

$$

VAZ036>039-050-240100-
CENTRAL FOOTHILLS

CITY           SKY/WX    TMP DP  RH WIND       PRES   REMARKS
CHARLOTTESVILL MOCLDY    84  73  69 SW9       29.75S HX  90
CULPEPER*      MOCLDY    84  73  68 SW7       29.73R HX  90
ORANGE*        PTCLDY    81  72  74 S8        29.75R
GORDONSVILLE*  CLOUDY    83  75  77 SW8       29.74S
WARRENTON*     MOCLDY    85  70  60 SW10G17   29.72R

$$

VAZ055>057-240100-
NORTH AND CENTRAL PIEDMONT

CITY           SKY/WX    TMP DP  RH WIND       PRES   REMARKS
FREDERICKSBRG* CLOUDY    85  75  71 S8        29.72S HX  94
STAFFORD*      PTCLDY    83  74  72 SW9G16    29.76S HX  90

$$

NCZ024-NYZ072-PAZ021-071-VAZ022-071-240100-
OTHER REGIONAL OBSERVATIONS

CITY           SKY/WX    TMP DP  RH WIND       PRES   REMARKS
NEW YORK CITY  CLOUDY    81  73  76 CALM      29.67S
PHILADELPHIA   MOCLDY    84  72  67 SW16G24   29.67S
PITTSBURGH     CLOUDY    69  68  96 SW6       29.69R
ROANOKE        CLOUDY    83  69  62 S8        29.81S
RICHMOND       MOCLDY    85  72  65 SW12      29.77S HX  91
RALEIGH        PTCLDY    87  73  62 SW15      29.85S HX  94

$$

ANZ530>537-240100-
MARINE OBSERVATIONS

STATION/POSITION TIME  TEMP    WIND        PRES
                       AIR SEA DIR/SP/G
                 (UTC) (F)     (DEG/KT/KT) (MB)
THOMAS PT LIGHT  0000   84 78  210/ 14/ 15   N/A
BALT KEY BRIDGE  2342   85     200/  9/ 12 1004.5F
COVE POINT       2342   85     210/ 14/ 16 1006.9F
LEWISETTA        2342   86 80  230/ 12/ 17 1006.9F
SOLOMONS ISLAND  2348          210/ 11/ 13   N/A
PINEY POINT      2336          230/ 15/ 16   N/A

$$





USA.gov is the U.S. government's official web portal to all federal, state and local government web resources and services.